Wind_Speed
66 67 68 69 69 70 70 70 70 70 70 70 70 70 70 70 70 69 69 69 69 69 70 71 71 71 71 72 72 72 73 74 75 76 76 77 78 78 79 80 81 83 83 84 84 85 86 87 88 89 90 91 91 92 92 92 93 93 93 93 94 93
67 68 68 69 69 69 70 70 70 69 69 69 70 70 71 71 71 71 71 71 71 71 71 71 71 71 71 71 72 72 73 74 74 75 76 77 78 80 81 82 84 85 86 87 87 88 89 90 90 91 92 92 93 93 93 93 94 94 94 95 95 96
68 68 69 70 70 70 70 70 70 69 69 69 68 68 68 69 69 69 70 70 71 71 71 71 71 71 72 73 74 74 75 75 76 77 79 80 81 82 83 84 85 86 87 88 89 90 90 91 91 92 93 93 94 94 94 95 95 95 95 95 96 96
69 70 71 71 71 71 71 71 71 70 69 68 67 67 67 67 68 68 68 69 69 70 70 71 71 72 73 74 75 76 77 78 79 80 80 81 82 82 83 85 86 87 88 89 90 91 92 92 93 93 94 94 95 95 96 96 97 97 97 97 97 97
72 73 73 73 72 72 71 71 70 69 67 66 66 66 66 67 68 68 69 69 70 71 72 73 74 75 75 76 77 78 78 79 80 80 81 82 83 84 85 86 87 88 89 90 91 92 93 93 94 94 95 95 96 96 97 97 98 98 98 98 99 99
73 73 73 72 71 70 69 68 67 65 65 65 66 66 68 69 70 71 72 73 74 74 75 75 75 76 77 77 78 79 79 80 81 82 83 84 85 86 87 88 89 90 91 92 93 93 94 94 95 95 95 96 96 96 97 97 98 98 99 99 99 100
72 71 71 69 68 67 67 66 65 65 66 67 69 70 71 72 73 74 74 75 75 75 76 76 77 78 78 79 80 81 81 82 83 84 85 86 87 88 89 90 91 92 93 93 94 94 94 95 95 95 95 95 96 96 96 97 97 97 98 98 99 99
70 69 68 66 66 67 67 67 67 68 69 70 71 72 73 73 74 74 75 75 76 76 77 78 78 79 80 81 81 82 83 84 85 86 87 88 89 90 91 92 92 93 93 93 94 94 94 94 94 94 94 94 94 95 95 95 95 95 96 96 96 97
66 66 65 65 66 67 68 68 69 70 71 71 72 72 73 73 74 74 75 76 76 77 78 79 79 80 81 82 83 84 85 86 87 88 89 89 90 91 91 91 92 92 92 92 92 92 92 92 92 92 91 91 91 91 91 91 91 92 92 92 93 93
64 64 64 65 66 67 67 68 69 69 70 71 71 72 73 74 75 75 76 76 77 77 78 79 80 81 82 83 84 86 87 88 89 89 90 90 90 90 90 90 90 90 90 90 89 89 88 88 87 87 86 86 86 85 85 85 86 86 87 87 87 88
63 63 64 65 66 66 66 67 68 69 70 71 72 72 73 74 75 76 76 77 77 78 79 80 81 82 83 84 86 87 88 89 89 89 89 89 89 88 88 88 87 86 85 84 83 83 82 81 80 79 79 79 78 78 78 79 79 80 81 82 82 82
62 63 64 65 65 66 67 68 69 69 70 71 72 73 74 75 76 76 77 77 78 79 80 81 83 83 85 86 87 88 88 88 88 88 88 87 87 86 85 83 82 80 79 78 76 75 74 73 72 72 72 72 73 73 73 74 74 75 76 77 78 79
62 63 64 65 66 67 68 68 69 70 71 72 73 74 75 76 76 76 77 78 79 80 82 83 84 85 86 87 87 87 87 87 86 85 85 83 82 80 79 77 75 73 72 71 69 69 68 67 67 68 68 69 70 71 72 72 73 74 74 75 76 76
62 63 64 65 67 67 68 68 69 70 71 72 73 74 75 76 76 77 78 79 80 81 83 84 85 86 86 86 86 85 84 83 82 80 79 77 75 73 71 69 68 67 66 66 65 65 65 65 65 66 67 68 70 72 73 73 73 73 73 73 73 73
63 63 64 65 66 67 67 68 69 70 71 72 73 75 76 77 78 79 79 80 81 82 83 84 85 84 84 83 81 80 78 76 75 73 70 69 67 66 64 63 63 63 63 63 63 63 63 64 66 67 69 70 71 73 73 73 73 73 72 72 72 71
62 63 64 65 66 67 67 69 69 70 72 73 75 76 77 78 79 80 80 81 82 83 83 83 82 81 80 78 75 73 71 69 67 66 64 63 62 61 61 61 61 61 62 62 63 63 64 66 67 69 70 71 72 73 74 73 73 72 72 71 70 70
63 64 65 65 66 67 68 69 70 72 73 75 76 77 78 79 80 81 82 82 82 82 81 80 78 76 74 72 69 67 65 64 62 61 61 60 60 60 60 60 61 62 62 63 64 65 66 67 69 70 71 72 73 73 74 73 72 71 70 69 69 69
64 65 65 66 67 69 70 71 73 74 75 76 77 78 79 80 81 81 81 81 80 79 78 76 74 72 69 66 64 62 61 60 60 60 60 59 60 60 61 61 62 63 64 65 66 67 67 69 70 72 72 73 73 73 73 72 71 70 69 69 69 69
65 66 67 68 70 71 72 74 75 76 76 77 78 79 80 80 80 80 80 79 78 76 74 72 69 66 64 61 60 59 59 59 59 60 60 61 61 62 63 63 64 65 66 67 68 68 69 70 71 73 73 73 73 73 72 72 71 70 70 69 69 69
67 68 70 71 72 73 75 76 76 77 78 78 79 80 80 80 80 79 78 76 74 72 69 66 63 61 60 59 58 59 59 60 61 62 62 63 63 64 65 65 66 67 67 68 69 70 70 70 72 72 72 72 72 73 72 72 71 70 70 70 69 68
70 71 72 73 74 75 76 77 77 78 79 79 80 80 79 79 77 76 74 71 69 66 63 61 59 58 58 58 59 60 61 62 63 63 64 65 65 65 66 67 67 67 68 69 70 71 71 70 71 71 71 71 72 73 73 73 72 71 70 69 67 65
73 73 74 75 76 77 77 78 78 78 78 78 78 78 77 75 73 71 68 66 63 61 59 58 57 58 59 59 60 61 62 63 64 65 65 66 66 67 67 68 68 68 69 70 70 70 70 70 69 70 70 71 72 73 73 72 71 70 68 67 65 63
75 75 76 76 77 77 77 77 76 76 76 76 76 74 72 70 68 65 63 61 59 58 57 58 58 59 60 61 62 63 64 65 65 66 66 67 67 67 68 68 69 69 69 69 69 69 69 69 69 69 69 70 70 71 71 70 69 68 66 63 61 59
76 76 76 76 76 75 75 74 74 74 74 72 70 68 66 64 62 60 58 57 57 57 58 59 59 60 61 62 63 63 64 65 66 66 67 67 67 68 68 68 69 68 68 68 68 68 68 68 67 67 67 67 67 67 67 66 65 63 62 59 56 54
76 76 76 75 75 74 73 72 71 70 69 67 65 63 61 59 57 56 56 56 56 57 57 58 59 60 61 62 63 63 64 65 66 67 67 67 67 67 67 67 67 67 67 66 66 65 65 65 65 64 64 64 64 63 63 62 60 59 57 55 51 50
76 76 75 74 73 71 70 68 66 65 64 62 60 58 56 55 55 55 55 55 56 56 57 58 59 60 61 62 62 63 64 65 66 66 67 67 67 67 66 66 66 66 65 64 63 63 63 63 62 62 62 61 61 60 59 57 56 54 53 50 48 47
75 74 72 70 68 66 64 63 62 61 60 58 57 55 54 54 54 55 55 56 56 57 57 58 59 60 61 62 63 63 64 65 65 65 65 66 66 66 65 65 65 65 64 63 62 61 61 60 59 59 59 59 58 57 55 54 52 50 48 46 45 45
71 68 66 63 62 60 59 58 57 56 56 55 54 54 54 55 55 55 56 56 57 57 58 59 60 60 61 62 62 63 63 64 64 64 65 65 65 65 65 64 64 64 63 62 61 60 58 58 57 57 57 57 56 54 53 51 48 45 44 44 45 45
63 60 58 56 55 54 54 54 54 54 54 54 54 54 54 55 55 56 56 57 57 58 58 58 59 60 60 60 61 62 62 63 63 64 64 64 64 64 64 63 63 62 61 60 59 58 57 57 57 56 56 55 54 52 51 48 44 42 43 44 45 45
56 53 51 50 50 51 51 52 52 53 54 53 53 53 53 53 54 55 55 56 56 57 57 58 58 58 59 60 60 61 62 63 63 63 63 63 63 63 63 62 61 61 60 59 58 58 57 57 57 56 56 54 52 50 47 44 41 42 43 44 44 44
51 49 48 48 49 50 51 51 51 52 51 51 50 51 51 52 52 53 53 54 55 55 56 57 57 58 59 59 60 61 61 62 62 62 61 62 62 62 62 62 61 61 61 60 59 59 58 57 56 56 55 53 50 47 43 40 40 41 43 43 43 43
49 48 48 48 49 49 49 48 49 49 48 48 48 49 50 50 50 51 52 53 54 54 55 56 57 58 58 59 59 60 60 60 60 60 60 60 60 61 62 62 62 62 62 61 60 60 60 58 57 55 53 50 46 42 39 38 39 41 41 41 41 42
48 47 47 46 46 45 45 46 46 47 47 47 48 49 49 49 50 51 51 52 53 54 55 56 57 58 58 59 59 59 58 57 57 57 59 59 60 61 62 63 63 63 63 63 62 61 61 60 57 54 51 47 42 38 36 37 39 40 40 40 40 41
45 44 43 43 43 43 44 45 46 46 47 47 48 48 49 49 50 50 51 51 52 53 54 55 57 57 58 58 58 57 57 55 55 55 56 59 61 62 63 63 64 64 63 64 63 62 61 58 55 51 47 42 37 35 35 36 39 39 39 39 40 40
42 42 42 42 43 44 45 45 46 46 47 48 48 49 50 50 51 51 51 51 51 52 53 55 56 57 57 57 56 55 55 55 55 55 55 57 60 62 64 65 65 64 64 64 63 61 59 55 52 48 42 36 33 32 34 36 38 38 38 38 39 39
42 42 42 42 43 44 45 46 47 48 48 49 50 51 52 53 53 52 52 52 52 52 53 54 55 56 56 55 55 54 54 55 56 56 57 58 59 61 63 65 66 65 64 63 61 59 57 54 50 45 38 32 30 31 33 35 37 38 38 38 38 38
43 43 43 44 45 46 47 49 49 50 51 52 52 53 54 55 55 54 54 54 54 53 53 53 54 55 55 55 55 55 55 55 56 57 59 60 60 61 62 64 65 66 65 62 58 56 55 51 45 38 33 30 30 32 33 34 35 36 37 38 37 37
45 46 46 46 48 49 50 51 52 52 53 54 55 56 57 57 57 57 56 56 56 55 55 54 54 55 55 56 56 56 56 57 57 59 60 61 62 62 63 62 62 64 63 60 56 54 51 44 37 31 29 30 31 32 33 33 34 35 36 36 36 37
Wind_Direction
282 282 281 281 281 281 281 281 280 280 280 280 279 279 278 277 276 275 275 275 274 274 274 274 274 274 275 276 276 276 276 276 276 276 276 276 276 277 278 278 279 279 280 280 280 280 279 279 279 280 280 280 280 280 279 279 279 279 279 279 279 279
282 282 282 282 282 281 281 280 280 279 279 279 278 278 278 277 277 277 277 277 277 277 277 276 276 276 276 276 276 277 277 278 278 279 279 279 279 280 280 280 280 281 281 281 281 281 281 281 280 280 280 280 280 280 280 280 279 279 278 278 278 278
284 283 283 283 282 282 281 281 281 280 280 279 279 279 278 278 277 277 277 277 278 278 278 278 278 278 278 278 279 279 280 281 281 282 282 283 283 283 282 282 282 282 282 283 283 282 282 282 282 281 281 281 281 280 280 280 279 279 278 278 277 277
284 283 283 283 282 282 282 282 282 282 282 281 281 281 280 280 279 279 279 279 280 280 280 281 281 282 282 282 283 283 284 284 284 284 284 284 284 284 284 283 283 283 283 283 283 283 283 282 282 282 282 281 281 281 280 280 279 279 278 278 277 277
283 282 282 282 283 283 283 283 283 283 283 283 283 283 283 283 283 283 283 284 284 284 284 285 285 285 285 285 285 285 285 285 285 285 285 285 285 285 285 284 284 284 284 284 284 283 283 283 283 282 282 282 281 281 281 280 280 280 279 278 278 277
282 283 283 284 284 284 284 284 285 284 284 284 284 284 284 285 285 285 285 286 286 286 286 286 286 285 285 285 285 285 286 286 286 286 287 287 287 287 287 287 286 286 286 285 285 284 284 284 283 283 282 282 281 280 280 280 280 279 279 278 278 277
284 284 285 285 285 285 285 285 285 284 284 284 284 284 284 284 285 285 285 285 286 286 286 286 286 287 287 287 288 288 288 289 289 289 289 289 289 289 288 288 287 287 286 286 285 285 284 284 284 283 282 282 281 281 280 279 279 279 278 278 278 277
285 286 286 286 285 285 285 284 284 284 283 283 283 284 284 284 284 285 285 286 286 287 287 288 288 288 289 289 290 290 290 290 290 290 290 290 289 289 288 288 287 287 286 286 285 285 285 284 284 283 283 282 281 281 280 280 279 279 278 278 277 277
285 285 285 284 284 283 283 283 283 283 283 283 283 284 284 284 285 285 286 286 287 288 288 289 289 290 290 290 291 291 291 291 291 290 290 289 289 288 288 288 287 287 287 286 286 285 285 284 284 284 283 283 282 282 281 280 280 279 279 278 278 277
284 284 283 283 282 282 282 282 282 282 282 283 283 284 285 285 285 286 287 287 288 289 289 289 290 290 290 291 291 291 291 291 290 290 290 289 289 289 288 288 287 287 287 286 286 286 285 285 285 284 284 283 283 283 282 282 281 280 280 279 279 278
284 283 282 282 282 282 282 282 282 283 283 284 284 285 285 286 286 287 287 288 289 289 289 289 290 290 290 290 290 291 291 291 291 290 290 290 289 289 288 288 287 287 287 287 287 286 286 286 286 286 285 285 284 284 283 283 282 282 281 281 280 280
283 282 282 283 283 283 283 283 283 284 284 285 285 286 286 286 287 288 288 289 289 289 289 289 289 290 290 290 291 291 291 291 291 291 290 290 290 289 289 288 288 288 287 287 287 288 288 288 288 287 287 286 286 285 285 284 284 284 283 283 282 282
283 283 283 283 283 283 284 284 285 285 285 286 286 286 286 287 287 288 288 289 289 289 289 289 290 291 291 291 292 292 292 292 291 291 290 290 290 289 289 289 289 289 288 288 288 288 288 288 288 288 287 287 287 287 287 287 286 286 286 285 284 284
283 283 283 283 283 284 284 285 285 286 286 286 286 286 287 287 288 288 288 288 288 289 290 290 291 292 292 292 292 292 292 291 291 291 290 290 290 290 290 289 289 289 288 288 288 288 288 288 288 288 288 288 289 289 289 289 288 288 287 287 286 285
283 283 284 284 284 284 285 285 286 286 286 286 287 287 287 287 288 288 288 289 289 290 291 291 292 292 292 292 292 292 291 291 290 290 290 290 290 289 289 288 288 288 288 288 288 288 288 288 288 289 289 289 290 290 290 290 290 289 289 288 287 286
284 284 284 284 284 285 285 286 287 287 287 287 287 287 287 288 288 289 289 290 291 291 292 292 292 292 292 292 291 290 290 289 289 289 288 288 288 288 288 288 288 288 289 289 289 289 289 289 289 289 289 290 290 290 290 290 290 290 289 289 288 287
284 284 284 285 286 286 287 287 287 286 287 287 287 287 288 289 289 290 291 291 292 292 292 292 291 291 291 290 290 289 289 288 288 288 288 288 288 288 289 289 289 289 290 290 290 290 290 290 290 290 290 291 291 291 291 291 291 290 290 289 289 288
284 285 286 286 287 287 287 287 286 287 287 287 288 288 289 290 290 291 291 292 292 292 291 291 290 290 290 289 288 288 288 288 289 289 289 290 290 290 290 290 290 290 290 291 291 291 291 291 291 291 292 292 292 292 291 291 291 290 290 290 289 289
285 286 287 287 287 287 287 287 287 287 288 288 289 289 289 290 290 291 291 291 291 291 290 290 289 289 289 288 288 289 289 290 290 291 291 291 291 291 291 291 292 291 291 291 291 292 292 292 292 292 293 293 292 292 291 291 291 291 291 290 290 290
286 287 287 287 287 288 288 288 288 289 289 289 289 289 290 290 290 290 290 290 290 289 289 289 289 288 288 289 289 290 290 291 291 291 291 291 291 292 292 292 292 292 292 292 292 292 293 293 293 293 293 293 292 292 291 291 291 291 291 290 290 290
287 288 288 289 289 289 289 289 289 290 290 290 290 290 290 290 290 290 289 289 289 288 288 288 288 289 289 290 290 291 291 291 291 291 291 291 291 291 291 291 292 292 293 293 293 294 294 294 294 293 293 293 292 291 291 291 291 291 290 290 290 290
288 289 289 290 290 290 290 290 290 290 290 290 290 290 290 289 289 289 288 288 288 288 288 288 289 289 290 290 290 290 290 290 290 290 290 290 291 291 292 292 292 293 293 294 294 294 294 294 294 293 293 292 292 291 291 291 291 290 290 289 289 288
289 290 290 290 290 290 290 290 290 289 289 289 289 289 289 289 289 288 288 288 288 288 288 288 288 289 289 289 290 290 290 289 289 290 290 290 291 292 292 293 293 294 294 294 295 295 295 294 294 293 293 292 291 291 291 291 291 290 289 289 288 287
290 290 290 290 290 290 290 289 289 289 289 288 288 288 288 288 288 287 287 287 287 287 287 287 288 288 289 289 289 289 289 289 290 290 291 291 292 292 293 294 294 294 295 295 295 295 295 295 294 294 293 293 293 293 293 292 292 291 290 289 288 286
290 290 289 289 289 289 289 288 288 287 287 287 287 287 287 287 287 286 286 286 286 287 287 288 288 288 289 289 289 289 290 290 290 291 292 292 293 294 294 295 295 295 295 296 296 296 295 295 295 295 295 295 295 295 295 295 295 294 292 291 288 286
290 289 289 290 289 289 288 287 286 286 286 286 286 286 287 286 286 286 286 287 287 288 288 288 288 289 289 289 289 290 290 290 291 292 293 294 295 295 296 296 296 297 297 297 296 296 296 296 296 296 296 296 296 297 297 297 296 294 292 290 288 287
290 290 290 290 289 287 286 286 285 285 286 286 287 288 287 287 287 288 288 288 289 289 289 289 289 289 289 289 289 290 290 291 292 293 295 296 296 297 298 298 298 298 298 298 298 297 297 297 297 297 297 297 297 298 298 297 295 293 290 288 287 287
291 291 290 289 288 287 286 286 286 286 286 287 289 289 289 290 290 290 290 290 290 290 290 290 289 289 289 290 290 291 291 292 294 295 296 297 298 298 299 300 300 300 300 300 299 299 298 297 297 297 297 297 298 298 297 295 293 290 287 287 288 289
291 291 290 289 288 287 287 287 287 287 288 289 290 291 292 292 292 292 292 292 291 291 291 291 290 290 290 290 291 292 293 294 295 296 297 298 298 300 300 301 301 301 301 300 300 299 299 299 298 298 297 297 298 297 295 292 288 285 285 286 287 289
291 291 289 289 288 287 287 287 288 288 289 291 292 293 293 293 293 293 293 293 292 292 292 292 291 291 291 291 292 293 293 294 295 296 298 299 299 300 301 302 302 302 302 301 301 300 300 300 299 298 297 296 295 294 290 285 282 281 282 283 284 286
291 290 289 288 288 288 288 288 289 290 291 292 293 293 293 293 293 294 294 294 294 293 293 292 292 291 292 292 292 293 294 295 296 297 298 299 301 302 303 303 304 304 303 303 302 302 301 300 298 297 295 294 293 290 285 280 279 280 281 282 284 286
290 289 289 288 288 289 289 289 290 291 292 294 294 294 295 295 295 295 295 295 295 295 295 294 293 293 293 292 293 293 294 295 296 297 298 299 301 303 304 305 305 305 304 304 304 304 302 301 299 297 295 293 292 286 280 279 281 283 284 286 288 290
289 289 288 289 289 289 290 290 291 293 295 296 297 297 297 297 297 297 297 296 296 296 296 296 296 295 294 293 293 293 294 295 296 297 299 300 301 303 305 306 306 306 305 305 306 305 304 303 301 299 296 294 289 282 278 281 285 286 288 289 291 291
288 288 289 289 290 290 291 292 293 295 296 298 299 299 299 299 299 299 299 299 299 299 298 298 298 297 296 294 293 293 293 294 295 297 299 300 302 303 305 306 307 306 306 306 306 305 304 302 301 300 297 292 285 279 279 284 287 289 291 293 293 293
288 289 290 291 291 292 292 292 293 295 297 298 299 300 300 301 301 301 301 302 302 302 301 300 299 298 296 295 293 293 293 294 295 297 298 300 301 303 305 306 306 306 306 306 306 305 304 302 301 300 296 289 280 278 282 287 290 292 293 294 294 294
289 290 291 293 294 294 293 293 294 296 298 299 300 301 301 301 301 302 302 304 304 304 304 302 301 299 297 295 294 293 293 295 296 297 298 299 300 302 304 306 306 306 306 307 306 304 303 302 301 299 294 286 281 283 287 290 293 295 295 295 294 295
290 291 293 295 295 294 294 294 295 296 298 298 298 299 300 300 301 302 303 305 307 307 307 305 303 301 299 297 295 294 294 295 296 297 298 299 300 301 303 304 305 306 307 307 305 304 303 301 299 295 290 284 284 287 290 292 294 296 297 297 298 299
290 293 294 295 295 295 295 294 295 296 296 296 296 297 297 299 300 301 303 305 307 308 308 307 305 303 302 299 297 295 294 294 295 296 298 299 300 302 303 303 304 306 307 306 305 303 302 299 295 290 286 285 287 289 291 293 295 296 298 299 302 304
Height
5697 5695 5693 5691 5690 5688 5686 5685 5683 5681 5679 5678 5676 5673 5672 5670 5668 5667 5665 5664 5663 5662 5660 5659 5657 5656 5654 5652 5651 5649 5648 5646 5645 5643 5642 5640 5639 5638 5636 5634 5632 5630 5629 5627 5626 5625 5624 5622 5621 5620 5619 5617 5616 5615 5613 5612 5611 5611 5609 5607 5606 5605
5688 5686 5685 5683 5681 5679 5677 5676 5674 5672 5670 5669 5667 5665 5663 5661 5659 5658 5656 5655 5654 5652 5651 5649 5648 5647 5645 5643 5642 5640 5639 5637 5636 5634 5633 5632 5630 5629 5627 5625 5623 5621 5618 5616 5615 5614 5612 5611 5610 5609 5608 5606 5604 5603 5602 5601 5600 5600 5599 5596 5594 5593
5679 5678 5676 5674 5672 5669 5667 5666 5664 5662 5661 5659 5657 5656 5654 5652 5650 5649 5647 5646 5645 5643 5642 5640 5639 5638 5636 5635 5633 5632 5630 5629 5627 5625 5624 5622 5620 5618 5617 5615 5612 5610 5608 5605 5603 5602 5600 5598 5597 5596 5595 5594 5592 5591 5589 5588 5587 5587 5586 5585 5583 5581
5671 5669 5667 5664 5662 5660 5658 5656 5654 5652 5651 5649 5648 5646 5645 5643 5641 5639 5638 5637 5635 5634 5633 5631 5630 5629 5627 5626 5624 5622 5621 5619 5617 5615 5614 5612 5610 5608 5606 5604 5602 5599 5597 5594 5592 5590 5588 5586 5585 5583 5582 5581 5579 5577 5575 5574 5573 5572 5572 5571 5569 5568
5662 5660 5658 5655 5653 5651 5649 5647 5645 5643 5642 5640 5639 5637 5635 5633 5631 5630 5628 5627 5626 5625 5624 5622 5621 5619 5618 5616 5614 5613 5611 5609 5607 5605 5603 5601 5599 5597 5595 5592 5590 5587 5585 5583 5580 5578 5576 5574 5572 5570 5569 5567 5566 5564 5562 5560 5558 5557 5557 5556 5554 5553
5653 5651 5648 5646 5644 5642 5640 5639 5637 5635 5634 5632 5630 5628 5626 5624 5623 5621 5619 5618 5617 5616 5614 5613 5611 5610 5608 5606 5604 5602 5600 5598 5596 5594 5592 5589 5587 5584 5582 5579 5577 5574 5572 5570 5567 5565 5563 5560 5559 5557 5555 5553 5552 5551 5549 5547 5545 5543 5542 5541 5539 5538
5643 5641 5639 5638 5636 5634 5632 5631 5630 5628 5626 5624 5622 5620 5618 5616 5614 5612 5611 5610 5608 5607 5605 5603 5601 5599 5597 5594 5592 5590 5588 5586 5584 5581 5579 5577 5574 5572 5569 5566 5564 5561 5558 5556 5553 5551 5549 5546 5545 5543 5541 5539 5537 5536 5535 5534 5532 5530 5528 5527 5525 5523
5635 5633 5631 5629 5627 5625 5624 5623 5622 5620 5617 5615 5613 5611 5610 5607 5605 5604 5602 5600 5599 5597 5595 5592 5590 5588 5585 5583 5580 5578 5576 5574 5571 5569 5567 5565 5562 5559 5557 5554 5551 5548 5545 5542 5540 5537 5535 5533 5530 5528 5526 5524 5523 5521 5520 5519 5518 5516 5515 5513 5511 5509
5627 5625 5624 5622 5619 5617 5616 5615 5614 5611 5608 5606 5604 5603 5601 5598 5596 5595 5593 5591 5589 5587 5585 5582 5579 5577 5575 5572 5569 5567 5565 5562 5560 5558 5555 5553 5550 5547 5545 5541 5538 5535 5532 5529 5526 5524 5521 5519 5516 5514 5512 5510 5508 5507 5505 5504 5503 5501 5500 5498 5496 5494
5619 5617 5616 5614 5611 5610 5609 5607 5605 5602 5600 5598 5596 5594 5592 5589 5587 5585 5583 5582 5580 5577 5574 5572 5569 5567 5565 5562 5559 5556 5554 5551 5548 5546 5543 5540 5538 5535 5532 5529 5526 5522 5519 5516 5513 5510 5508 5505 5503 5500 5498 5496 5495 5493 5491 5490 5488 5487 5486 5484 5482 5479
5611 5609 5607 5605 5603 5601 5600 5598 5595 5594 5592 5589 5587 5585 5583 5579 5577 5576 5574 5572 5570 5567 5564 5562 5559 5557 5555 5552 5549 5546 5543 5540 5536 5533 5530 5528 5525 5522 5519 5516 5513 5510 5507 5504 5501 5498 5496 5493 5490 5487 5485 5483 5482 5480 5478 5477 5475 5473 5472 5470 5469 5466
5603 5601 5599 5596 5595 5592 5590 5588 5586 5584 5582 5580 5578 5576 5573 5570 5568 5566 5564 5562 5560 5557 5554 5551 5549 5547 5544 5541 5538 5535 5531 5528 5524 5521 5518 5515 5512 5510 5507 5504 5501 5498 5496 5493 5490 5488 5485 5482 5479 5476 5473 5471 5469 5468 5467 5466 5464 5462 5459 5458 5456 5455
5595 5593 5591 5588 5586 5583 5582 5580 5577 5575 5573 5571 5568 5565 5563 5561 5559 5557 5555 5553 5550 5547 5544 5541 5538 5535 5532 5529 5526 5523 5519 5516 5512 5509 5506 5503 5500 5497 5495 5492 5490 5487 5485 5483 5480 5478 5475 5472 5469 5466 5464 5461 5458 5457 5456 5454 5453 5451 5448 5446 5444 5443
5587 5585 5582 5580 5577 5575 5573 5571 5568 5566 5564 5561 5558 5555 5553 5551 5550 5548 5545 5543 5540 5537 5533 5530 5526 5523 5520 5517 5514 5511 5507 5504 5500 5497 5494 5491 5489 5486 5484 5481 5479 5477 5475 5473 5471 5469 5467 5464 5461 5458 5455 5452 5449 5446 5445 5443 5442 5440 5438 5435 5433 5431
5579 5576 5574 5572 5569 5566 5564 5561 5559 5557 5554 5551 5548 5546 5544 5542 5540 5537 5535 5533 5530 5526 5523 5518 5515 5511 5508 5506 5503 5499 5496 5493 5490 5487 5484 5482 5479 5477 5475 5472 5470 5468 5466 5464 5462 5461 5458 5456 5452 5449 5446 5444 5441 5437 5435 5433 5431 5429 5427 5424 5422 5420
5570 5568 5566 5563 5560 5558 5555 5552 5550 5547 5544 5542 5539 5537 5534 5531 5529 5526 5524 5522 5518 5515 5511 5507 5504 5501 5498 5495 5492 5489 5486 5483 5480 5478 5475 5473 5471 5469 5466 5464 5462 5460 5458 5456 5454 5452 5450 5447 5444 5440 5437 5434 5432 5428 5425 5423 5420 5418 5416 5413 5411 5409
5562 5559 5556 5554 5551 5549 5546 5544 5541 5538 5535 5533 5530 5527 5524 5521 5518 5515 5512 5510 5507 5504 5500 5497 5494 5491 5488 5485 5482 5479 5476 5474 5471 5469 5467 5465 5463 5460 5458 5456 5454 5452 5450 5447 5445 5444 5442 5438 5434 5431 5428 5425 5422 5418 5415 5412 5410 5407 5405 5403 5400 5398
5553 5550 5548 5545 5543 5540 5537 5534 5531 5529 5526 5523 5520 5517 5514 5511 5508 5504 5501 5498 5495 5493 5489 5486 5483 5481 5478 5475 5472 5470 5467 5465 5462 5460 5458 5456 5454 5452 5450 5448 5446 5444 5441 5439 5436 5434 5433 5429 5424 5421 5418 5415 5411 5408 5404 5402 5399 5397 5395 5393 5391 5388
5544 5542 5539 5537 5534 5530 5527 5524 5521 5519 5516 5513 5510 5507 5504 5501 5498 5494 5491 5488 5485 5482 5479 5476 5473 5471 5469 5466 5463 5461 5459 5456 5454 5451 5449 5448 5446 5444 5441 5439 5437 5435 5432 5430 5427 5425 5423 5420 5415 5410 5408 5404 5400 5397 5394 5391 5389 5387 5385 5383 5381 5379
5536 5533 5530 5528 5524 5520 5517 5513 5511 5508 5505 5502 5499 5496 5493 5490 5487 5484 5481 5478 5474 5471 5469 5466 5464 5462 5460 5457 5455 5452 5450 5448 5445 5443 5441 5439 5438 5435 5433 5430 5428 5426 5423 5420 5418 5415 5413 5411 5406 5401 5398 5394 5389 5385 5383 5380 5379 5377 5375 5373 5371 5370
5526 5523 5520 5517 5514 5510 5506 5503 5500 5497 5494 5491 5488 5485 5483 5480 5477 5474 5471 5468 5465 5462 5460 5458 5456 5454 5451 5449 5447 5445 5442 5440 5437 5435 5433 5431 5429 5427 5424 5421 5419 5417 5414 5411 5408 5405 5402 5400 5396 5391 5388 5384 5379 5374 5371 5370 5369 5367 5365 5363 5362 5360
5516 5513 5510 5507 5503 5499 5496 5492 5489 5486 5483 5480 5478 5475 5473 5469 5467 5464 5461 5458 5456 5453 5452 5450 5448 5446 5443 5441 5439 5437 5434 5432 5429 5427 5425 5422 5420 5418 5415 5412 5410 5408 5406 5402 5398 5395 5392 5389 5387 5382 5378 5374 5369 5364 5361 5359 5357 5356 5354 5353 5352 5350
5506 5503 5500 5496 5492 5489 5485 5481 5478 5475 5472 5470 5468 5465 5462 5460 5457 5455 5452 5450 5448 5446 5444 5442 5440 5438 5436 5434 5432 5429 5426 5423 5420 5418 5416 5414 5411 5409 5406 5403 5401 5399 5397 5393 5389 5386 5382 5379 5376 5373 5368 5363 5359 5355 5351 5349 5347 5344 5343 5344 5342 5340
5496 5493 5490 5486 5482 5479 5475 5472 5468 5465 5463 5460 5458 5456 5453 5451 5449 5447 5445 5442 5440 5438 5437 5435 5432 5430 5428 5426 5423 5421 5418 5414 5411 5409 5407 5405 5402 5400 5397 5394 5391 5389 5387 5384 5380 5377 5373 5369 5366 5362 5358 5353 5349 5346 5342 5339 5337 5334 5332 5333 5333 5330
5486 5483 5479 5476 5472 5469 5466 5462 5459 5456 5454 5452 5450 5447 5446 5444 5442 5439 5438 5435 5433 5432 5429 5427 5425 5422 5420 5417 5415 5412 5410 5406 5403 5400 5398 5395 5393 5391 5388 5385 5382 5380 5378 5375 5372 5368 5364 5360 5356 5352 5348 5344 5340 5337 5334 5331 5328 5325 5323 5323 5323 5321
5476 5473 5469 5466 5463 5459 5456 5453 5450 5447 5445 5443 5442 5440 5439 5437 5435 5433 5431 5429 5426 5424 5422 5420 5417 5414 5412 5409 5406 5404 5401 5397 5395 5392 5389 5386 5383 5381 5379 5376 5373 5370 5368 5366 5363 5359 5355 5352 5348 5343 5339 5335 5332 5330 5326 5323 5321 5318 5315 5313 5313 5312
5466 5463 5460 5457 5454 5450 5447 5444 5441 5439 5438 5436 5435 5433 5432 5430 5428 5426 5424 5421 5419 5417 5414 5412 5409 5406 5404 5401 5398 5395 5392 5389 5386 5384 5380 5377 5374 5371 5369 5367 5363 5361 5358 5356 5354 5351 5347 5343 5339 5336 5331 5328 5325 5322 5319 5316 5314 5311 5308 5306 5306 5305
5456 5453 5450 5447 5444 5441 5439 5436 5434 5432 5430 5429 5428 5426 5425 5423 5420 5418 5416 5413 5411 5409 5406 5404 5401 5398 5395 5392 5389 5387 5384 5381 5378 5376 5372 5369 5365 5363 5360 5357 5354 5351 5349 5346 5344 5341 5339 5335 5331 5328 5324 5320 5318 5315 5312 5309 5307 5304 5302 5300 5300 5299
5446 5444 5441 5439 5436 5434 5431 5429 5427 5425 5423 5422 5421 5419 5417 5415 5413 5410 5408 5405 5403 5401 5398 5396 5393 5390 5387 5384 5381 5379 5376 5373 5370 5367 5364 5361 5357 5355 5352 5349 5346 5343 5340 5338 5335 5332 5330 5327 5323 5319 5316 5313 5310 5308 5305 5303 5301 5298 5297 5295 5294 5294
5436 5435 5433 5431 5429 5427 5424 5422 5420 5418 5417 5416 5414 5412 5410 5407 5405 5402 5400 5397 5395 5393 5390 5388 5385 5383 5380 5377 5374 5371 5368 5365 5362 5359 5356 5352 5349 5347 5344 5340 5338 5334 5331 5329 5327 5324 5321 5319 5315 5311 5308 5305 5303 5300 5298 5296 5294 5292 5291 5290 5289 5288
5428 5426 5425 5423 5421 5419 5417 5415 5413 5411 5410 5409 5407 5404 5402 5399 5397 5395 5392 5389 5387 5384 5382 5380 5377 5374 5372 5369 5366 5363 5360 5357 5354 5351 5348 5345 5340 5338 5335 5332 5330 5326 5323 5321 5318 5315 5313 5311 5307 5303 5300 5297 5295 5292 5290 5289 5288 5286 5285 5284 5282 5281
5421 5419 5418 5416 5414 5412 5410 5408 5406 5405 5403 5402 5400 5397 5395 5392 5390 5388 5385 5382 5380 5377 5374 5372 5369 5366 5363 5361 5358 5356 5353 5350 5346 5343 5341 5338 5334 5330 5327 5324 5322 5318 5315 5312 5310 5307 5303 5301 5298 5295 5292 5289 5287 5285 5284 5282 5281 5279 5278 5277 5276 5274
5414 5412 5411 5409 5407 5405 5403 5401 5399 5398 5397 5395 5392 5390 5388 5385 5383 5380 5377 5375 5372 5369 5366 5363 5361 5358 5355 5352 5350 5348 5346 5343 5340 5335 5332 5329 5327 5324 5320 5316 5313 5310 5306 5303 5301 5298 5294 5291 5288 5285 5283 5281 5280 5278 5277 5276 5274 5272 5271 5270 5269 5268
5407 5406 5404 5403 5401 5399 5397 5395 5393 5392 5390 5388 5386 5383 5381 5378 5376 5373 5370 5367 5364 5362 5359 5356 5353 5350 5347 5344 5342 5339 5337 5336 5334 5331 5326 5321 5318 5316 5313 5309 5306 5302 5299 5295 5292 5289 5286 5283 5280 5277 5275 5274 5273 5272 5271 5270 5267 5266 5265 5264 5262 5261
5401 5399 5398 5396 5394 5393 5391 5389 5387 5385 5384 5382 5379 5376 5374 5371 5368 5366 5363 5360 5357 5354 5351 5348 5345 5342 5340 5337 5334 5332 5330 5327 5326 5324 5322 5317 5312 5308 5304 5302 5299 5296 5292 5289 5284 5280 5277 5274 5272 5270 5268 5267 5266 5266 5265 5264 5261 5260 5259 5258 5256 5254
5395 5393 5392 5390 5388 5386 5384 5382 5380 5379 5377 5375 5372 5369 5367 5364 5362 5359 5356 5353 5350 5347 5344 5341 5338 5335 5332 5330 5327 5324 5322 5320 5317 5316 5314 5312 5309 5304 5299 5294 5290 5287 5285 5282 5277 5273 5269 5267 5265 5263 5262 5261 5261 5260 5259 5258 5256 5254 5252 5251 5250 5248
5389 5387 5385 5383 5381 5379 5377 5375 5373 5372 5370 5367 5365 5362 5360 5357 5355 5352 5349 5346 5343 5340 5337 5334 5331 5328 5325 5322 5320 5317 5315 5312 5310 5308 5305 5303 5301 5299 5295 5290 5284 5279 5276 5274 5271 5267 5263 5260 5259 5257 5256 5256 5256 5255 5254 5253 5251 5248 5246 5244 5243 5241
5382 5380 5378 5376 5374 5372 5369 5367 5365 5364 5362 5360 5357 5355 5352 5350 5348 5345 5342 5339 5336 5333 5330 5327 5324 5321 5318 5315 5313 5310 5307 5305 5302 5300 5298 5295 5293 5291 5288 5285 5280 5274 5269 5265 5263 5260 5257 5254 5253 5253 5252 5251 5251 5250 5249 5248 5246 5244 5242 5239 5237 5234